User: anonymous   Login
Location: Dampvalley
(47.9094°N, 6.1967°E)
Time: 03:54:25
(UTC+00:00)
Language:

NOAA 19 - Orbit

View from above orbital plane
View from above orbital plane
View from above satellite
View from above satellite

Ground track
Ground track

The orbit data is extracted from the following two-line orbital elements,

1 33591U 09005A   21339.83190134  .00000050  00000-0  52069-4 0  9993
2 33591  99.1706   4.6845 0014103  15.5384 344.6218 14.12512780661111
Epoch (UTC): 05 December 2021 19:57:56
Eccentricity: 0.0014103
inclination: 99.1706°
perigee height: 840 km
apogee height: 861 km
right ascension of ascending node: 4.6845°
argument of perigee: 15.5384°
revolutions per day: 14.12512780
mean anomaly at epoch: 344.6218°
orbit number at epoch: 66111

The dashed part of the orbit path shows where the satellite is in the earth's shadow,  

DLR